[[{"header":{"parameterUnit":"m.s-1","parameterCategory":1,"la1":30.2991,"la2":30.254,"lo1":-89.0895,"lo2":-89.0444,"dy":0.0017,"dx":0.0017,"nx":28,"ny":28,"refTime":"2025-01-12T09:00:00:Z","depth":0,"parameterNumber":2,"parameterNumberName":"U-component_of_WINDS"},"data":[0,0,0,0,0,0,0,0,0,0,0,0,0,0,0,0,0,0,0,0,0,0,0,0,0,0,0,0,0,0,0,0,0,0,0,0,0,0,0,0,0,0,0,0,0,0,0,0,0,0,0,0,0,0,0,0,0,0,0.1809,0.1809,0,0.1787,0.1786,0.1786,0.1785,0.1786,0.1786,0.1786,0.1761,0.176,0.1759,0,0,0,0,0,0,0,0,0,0,0,0,0,0.1851,0.1851,0.1809,0.1809,0.1809,0.1787,0.1786,0.1786,0.1785,0.1786,0.1786,0.1786,0.1761,0.176,0.1759,0,0,0,0,0,0,0,0,0,0,0,0,0,0.1831,0.185,0.1809,0.1806,0.1805,0.1787,0.1786,0.1786,0.1785,0.1786,0.1786,0.1787,0.1762,0.176,0.1759,0.1742,0,0,0.1755,0.1754,0,0,0,0,0,0,0,0,0.1832,0.183,0.1807,0.1806,0.1805,0.1789,0.1792,0.1771,0.1785,0.1793,0.1786,0.1787,0.177,0.1768,0.1763,0.1741,0.1739,0.1755,0.1754,0.1753,0.1753,0,0,0,0,0,0,0,0.1834,0.1831,0.18,0.1806,0.1806,0.1805,0.1803,0.1788,0.1779,0.1792,0.1792,0.179,0.177,0.1764,0.1762,0.1739,0.1755,0.1753,0.1753,0.1752,0.1703,0.1702,0,0,0,0,0,0,0.1836,0.1832,0.1801,0.18,0.182,0.1804,0.1801,0.1794,0.1779,0.1778,0.1789,0.179,0.1766,0.1764,0.1761,0.174,0.1753,0.1752,0.1751,0.1703,0.1702,0.1702,0,0,0,0,0,0,0.1837,0.1833,0.1802,0.1816,0.1812,0.1803,0.1795,0.1793,0.1788,0.1777,0.1775,0.1785,0.1766,0.1763,0.1747,0.1739,0.1751,0.175,0.1704,0.1703,0.1702,0.1698,0,0,0,0,0,0,0.1838,0.1834,0.1827,0.1816,0.1811,0.1788,0.1794,0.1793,0.1785,0.1786,0.1773,0.1771,0.1767,0.1749,0.1746,0.1738,0.1749,0.1704,0.1703,0.1702,0.1699,0.1697,0.1696,0,0,0,0,0,0.184,0.1826,0.1827,0.1823,0.1803,0.1788,0.1785,0.1781,0.1785,0.1778,0.1772,0.1771,0.1741,0.1747,0.1743,0.1735,0.1705,0.1704,0.1703,0.1699,0.1698,0.1696,0,0,0,0,0,0,0.1836,0.1825,0.1825,0.1807,0.1799,0.1788,0.1779,0.1779,0.1768,0.1769,0.1763,0.176,0.1744,0.1738,0.1745,0.1718,0.1723,0.1721,0.1722,0.172,0.1719,0.172,0.1748,0,0,0,0,0,0.1833,0.1823,0.1813,0.1799,0.1794,0.1787,0.1781,0.1778,0.1769,0.1765,0.1757,0.1747,0.1736,0.1728,0.1716,0.1698,0.1696,0.1691,0.1689,0.1688,0.1686,0.1677,0.1674,0.1699,0.1699,0.1699,0,0,0.1827,0.182,0.1813,0.1798,0.1791,0.1779,0.1784,0.1772,0.1763,0.1763,0.1747,0.1741,0.173,0.1713,0.1705,0.1707,0.1679,0.1687,0.1686,0.1685,0.1675,0.1673,0.1671,0.1698,0.1698,0.1698,0,0,0.181,0.1804,0.1791,0.1784,0.1774,0.177,0.1767,0.1756,0.1752,0.1737,0.1736,0.1726,0.1706,0.1698,0.1692,0.1674,0.1673,0.1671,0.1663,0.1653,0.1651,0.165,0.1643,0.1641,0.1669,0.1669,0.1669,0,0.1804,0.1787,0.1784,0.1772,0.1766,0.1766,0.1753,0.1746,0.1733,0.1728,0.1731,0.1707,0.1699,0.168,0.1676,0.1671,0.1667,0.1671,0.1652,0.165,0.1649,0.1642,0.164,0.1669,0.1669,0.1669,0.1669,0,0.178,0.1768,0.1759,0.1747,0.1739,0.1727,0.1722,0.1715,0.1714,0.1709,0.1694,0.1685,0.1672,0.1668,0.1666,0.1649,0.1651,0.1653,0.1658,0.1646,0.164,0.1638,0.1668,0.1668,0.1668,0.1668,0,0,0.1758,0.1746,0.1742,0.1737,0.1726,0.1717,0.1705,0.1694,0.1687,0.1678,0.1668,0.1652,0.1654,0.1647,0.1645,0.1637,0.1623,0.164,0.1639,0.1637,0.1604,0.1601,0.1599,0.1623,0.1623,0.1622,0.1605,0,0.174,0.1718,0.1716,0.1697,0.1687,0.1688,0.1677,0.167,0.1666,0.1656,0.1651,0.164,0.1644,0.164,0.1632,0.1626,0.1616,0.1628,0.1613,0.1612,0.1615,0.1595,0.1593,0.1576,0.1602,0.1602,0.1601,0,0.1715,0.1706,0.1686,0.1678,0.1673,0.1664,0.1654,0.1645,0.1636,0.1634,0.1627,0.1626,0.1613,0.162,0.1603,0.1611,0.1605,0.1601,0.1601,0.1598,0.1605,0.1592,0.1571,0.1568,0.1598,0.1598,0.1598,0,0.17,0.1684,0.167,0.1665,0.1655,0.1649,0.1644,0.1637,0.163,0.1621,0.1617,0.1606,0.16,0.1592,0.1589,0.1594,0.1572,0.1578,0.1569,0.1569,0.1563,0.1563,0.154,0.1561,0.1561,0.1561,0.1561,0,0.1679,0.1667,0.1663,0.1655,0.1641,0.1639,0.1626,0.1622,0.1615,0.1605,0.1606,0.1597,0.1593,0.1583,0.1581,0.1567,0.1564,0.1562,0.1561,0.1561,0.1561,0.1556,0.1557,0.156,0.156,0.156,0.1561,0,0.166,0.1658,0.1642,0.1635,0.1633,0.1623,0.1617,0.1608,0.1605,0.1593,0.159,0.1585,0.1574,0.157,0.1556,0.1554,0.1538,0.1539,0.1541,0.1541,0.1532,0.1532,0.1503,0.1499,0.1524,0.1524,0.1523,0,0.1646,0.1637,0.1629,0.1623,0.1619,0.1609,0.1603,0.1601,0.1594,0.1585,0.1578,0.1567,0.1558,0.1541,0.1535,0.1525,0.1525,0.1516,0.1523,0.1524,0.1524,0.1524,0.1523,0.1514,0.1513,0.1513,0.1513,0,0.1622,0.1622,0.1613,0.1604,0.1597,0.1589,0.1582,0.1577,0.1574,0.1567,0.1556,0.1549,0.1536,0.1525,0.1515,0.1511,0.1511,0.1511,0.1508,0.1508,0.1509,0.1508,0.1536,0.1511,0.1511,0.1512,0.1512,0.1512,0.1605,0.1597,0.159,0.1581,0.1576,0.1569,0.1561,0.1558,0.1549,0.1538,0.1538,0.1526,0.1519,0.1506,0.1501,0.1491,0.1494,0.149,0.1489,0.1487,0.1487,0.1512,0.149,0.149,0.149,0.149,0.149,0,0.158,0.1576,0.1568,0.1558,0.1551,0.1554,0.1546,0.154,0.1529,0.1523,0.1515,0.1503,0.1493,0.1488,0.1478,0.1471,0.1471,0.1469,0.1468,0.1467,0.1485,0.1488,0.1469,0.1469,0.1469,0.1469,0.1469,0.1469,0.1566,0.1553,0.1552,0.1536,0.1532,0.1521,0.1517,0.1511,0.1506,0.1493,0.1485,0.1482,0.1476,0.1466,0.1457,0.1456,0.1452,0.1449,0.1448,0.1464,0.1466,0.1468,0.1471,0.1448,0.1448,0.1431,0.1431,0.143]},{"header":{"parameterUnit":"m.s-1","parameterCategory":1,"la1":30.2991,"la2":30.254,"lo1":-89.0895,"lo2":-89.0444,"dy":0.0017,"dx":0.0017,"nx":28,"ny":28,"refTime":"2025-01-12T09:00:00:Z","depth":0,"parameterNumber":3,"parameterNumberName":"V-component_of_WINDS"},"data":[0,0,0,0,0,0,0,0,0,0,0,0,0,0,0,0,0,0,0,0,0,0,0,0,0,0,0,0,0,0,0,0,0,0,0,0,0,0,0,0,0,0,0,0,0,0,0,0,0,0,0,0,0,0,0,0,0,0,-7.3436,-7.3437,0,-7.3557,-7.3558,-7.356,-7.3489,-7.3486,-7.3483,-7.3479,-7.3598,-7.3604,-7.361,0,0,0,0,0,0,0,0,0,0,0,0,0,-7.314,-7.3145,-7.3436,-7.3437,-7.3439,-7.3557,-7.3558,-7.356,-7.349,-7.3486,-7.3482,-7.3478,-7.3596,-7.3603,-7.3611,0,0,0,0,0,0,0,0,0,0,0,0,0,-7.3265,-7.3147,-7.3436,-7.3418,-7.3418,-7.3556,-7.3559,-7.3561,-7.3491,-7.3486,-7.3481,-7.3476,-7.3593,-7.3602,-7.3612,-7.3772,0,0,-7.3641,-7.3645,0,0,0,0,0,0,0,0,-7.3258,-7.3276,-7.3419,-7.342,-7.342,-7.3503,-7.3497,-7.3631,-7.3492,-7.3463,-7.3479,-7.3473,-7.357,-7.3581,-7.3615,-7.3778,-7.3783,-7.3641,-7.3647,-7.3651,-7.3654,0,0,0,0,0,0,0,-7.3249,-7.327,-7.3484,-7.3421,-7.3422,-7.3403,-7.3415,-7.3522,-7.3543,-7.3465,-7.346,-7.3476,-7.3569,-7.3606,-7.3617,-7.3785,-7.3641,-7.365,-7.3655,-7.3659,-7.4086,-7.4092,0,0,0,0,0,0,-7.3243,-7.3264,-7.348,-7.3487,-7.3325,-7.3412,-7.3426,-7.3481,-7.3542,-7.3547,-7.348,-7.3472,-7.3592,-7.3606,-7.3621,-7.3814,-7.3651,-7.366,-7.3665,-7.4081,-7.4088,-7.4094,0,0,0,0,0,0,-7.3237,-7.3263,-7.3475,-7.3374,-7.34,-7.3423,-7.3486,-7.3486,-7.3523,-7.3554,-7.3556,-7.3514,-7.3589,-7.3607,-7.3736,-7.3817,-7.3664,-7.3673,-7.4074,-7.4083,-7.4091,-7.4201,0,0,0,0,0,0,-7.3228,-7.3261,-7.3323,-7.3376,-7.3406,-7.359,-7.3491,-7.3492,-7.354,-7.3531,-7.3586,-7.359,-7.3586,-7.3722,-7.3745,-7.3827,-7.368,-7.4067,-7.4078,-7.4088,-7.419,-7.4212,-7.4231,0,0,0,0,0,-7.3218,-7.3348,-7.3327,-7.3353,-7.3484,-7.3595,-7.3611,-7.3605,-7.3547,-7.361,-7.3629,-7.3589,-7.3804,-7.3736,-7.3761,-7.3847,-7.4062,-7.4075,-7.4087,-7.4181,-7.4208,-7.4231,0,0,0,0,0,0,-7.3301,-7.3354,-7.3332,-7.3483,-7.3535,-7.3582,-7.3661,-7.3633,-7.3701,-7.369,-7.3677,-7.369,-7.3825,-7.3848,-7.3771,-7.4006,-7.3924,-7.3942,-7.3986,-7.4012,-7.4032,-7.4024,-7.3688,0,0,0,0,0,-7.3338,-7.3425,-7.3465,-7.3595,-7.3623,-7.3638,-7.3685,-7.3676,-7.3729,-7.375,-7.3779,-7.383,-7.3909,-7.3962,-7.4036,-7.4193,-7.4204,-7.4265,-7.4285,-7.4302,-7.4318,-7.4404,-7.4431,-7.4136,-7.4136,-7.4135,0,0,-7.3413,-7.3453,-7.3508,-7.3613,-7.3652,-7.3741,-7.3656,-7.3754,-7.3819,-7.3764,-7.3888,-7.3911,-7.3967,-7.4111,-7.4176,-7.4135,-7.4402,-7.4318,-7.4331,-7.4338,-7.442,-7.4448,-7.4472,-7.4144,-7.4143,-7.4141,0,0,-7.3596,-7.3635,-7.3748,-7.379,-7.3851,-7.3861,-7.3888,-7.394,-7.3954,-7.4079,-7.404,-7.4116,-7.4253,-7.4295,-7.4335,-7.4535,-7.4501,-7.456,-7.4666,-7.475,-7.4773,-7.4794,-7.4866,-7.4892,-7.4576,-7.4576,-7.4576,0,-7.3681,-7.3816,-7.3809,-7.391,-7.3958,-7.3914,-7.4028,-7.4068,-7.415,-7.4183,-7.4137,-7.4309,-7.4343,-7.4497,-7.4546,-7.4579,-7.4609,-7.4554,-7.4771,-7.4791,-7.481,-7.4879,-7.4906,-7.4583,-7.4582,-7.4581,-7.4581,0,-7.3918,-7.4012,-7.4095,-7.4179,-7.4235,-7.4342,-7.435,-7.4408,-7.4394,-7.4408,-7.4535,-7.4576,-7.4658,-7.4694,-7.468,-7.4846,-7.4819,-7.4772,-7.4689,-7.4846,-7.491,-7.4936,-7.4592,-7.459,-7.4588,-7.4586,0,0,-7.4157,-7.4236,-7.4267,-7.4305,-7.437,-7.4442,-7.4546,-7.463,-7.468,-7.4737,-7.4825,-7.4942,-7.49,-7.4945,-7.4935,-7.5009,-7.5166,-7.4953,-7.4954,-7.4992,-7.5352,-7.5388,-7.5419,-7.5144,-7.5149,-7.5153,-7.5348,0,-7.4345,-7.4531,-7.4528,-7.4699,-7.4786,-7.4746,-7.4837,-7.4887,-7.4903,-7.4977,-7.4993,-7.5078,-7.5015,-7.5042,-7.5113,-7.5132,-7.5239,-7.5118,-7.5224,-7.5228,-7.5213,-7.5452,-7.549,-7.5672,-7.5373,-7.5377,-7.538,0,-7.4589,-7.4658,-7.484,-7.4894,-7.493,-7.5012,-7.5089,-7.5161,-7.5215,-7.5222,-7.5273,-7.5253,-7.5358,-7.5272,-7.5416,-7.5334,-7.5377,-7.5394,-7.54,-7.5411,-7.5314,-7.5469,-7.573,-7.5758,-7.542,-7.5416,-7.5414,0,-7.4747,-7.4884,-7.5011,-7.5044,-7.511,-7.5169,-7.5199,-7.5249,-7.53,-7.5366,-7.5398,-7.5475,-7.5517,-7.5576,-7.5577,-7.5514,-7.5723,-7.5637,-7.5731,-7.5731,-7.5777,-7.5774,-7.6049,-7.5804,-7.5803,-7.5803,-7.5802,0,-7.4957,-7.507,-7.5083,-7.5161,-7.5286,-7.5281,-7.5404,-7.5427,-7.5473,-7.5554,-7.5523,-7.5599,-7.5595,-7.5671,-7.5672,-7.5792,-7.5811,-7.5818,-7.5817,-7.5822,-7.5821,-7.585,-7.5838,-7.581,-7.5809,-7.5807,-7.5806,0,-7.5154,-7.5168,-7.5303,-7.5356,-7.5371,-7.5461,-7.5505,-7.5578,-7.5592,-7.5695,-7.5718,-7.5739,-7.5828,-7.5835,-7.5937,-7.5937,-7.6083,-7.6068,-7.6066,-7.6063,-7.6158,-7.6149,-7.6461,-7.6502,-7.623,-7.6232,-7.6234,0,-7.5288,-7.5375,-7.5437,-7.549,-7.5524,-7.561,-7.5662,-7.566,-7.5715,-7.5785,-7.5851,-7.5937,-7.6006,-7.615,-7.6173,-7.6251,-7.6238,-7.6342,-7.6249,-7.6252,-7.6241,-7.6236,-7.6245,-7.636,-7.6363,-7.6366,-7.6368,0,-7.5526,-7.5528,-7.5606,-7.5687,-7.5751,-7.5813,-7.5872,-7.5917,-7.5921,-7.5985,-7.6077,-7.6131,-7.6237,-7.6323,-7.64,-7.6428,-7.64,-7.6397,-7.6423,-7.6429,-7.6425,-7.6429,-7.6116,-7.639,-7.6387,-7.6386,-7.6385,-7.6384,-7.5696,-7.5771,-7.5828,-7.5915,-7.596,-7.6015,-7.6088,-7.6112,-7.6189,-7.6277,-7.627,-7.6372,-7.6425,-7.6525,-7.656,-7.6639,-7.6603,-7.6641,-7.6651,-7.666,-7.6671,-7.6412,-7.6652,-7.6652,-7.6651,-7.6651,-7.665,0,-7.5932,-7.5967,-7.6048,-7.6132,-7.6201,-7.617,-7.6233,-7.6292,-7.6384,-7.6436,-7.6506,-7.6612,-7.6696,-7.6726,-7.6808,-7.6865,-7.6854,-7.6886,-7.6882,-7.689,-7.6697,-7.6667,-7.6894,-7.6894,-7.6894,-7.6894,-7.6894,-7.6894,-7.6063,-7.619,-7.62,-7.6347,-7.638,-7.6482,-7.6521,-7.6572,-7.6615,-7.6736,-7.6806,-7.6826,-7.687,-7.6954,-7.703,-7.7036,-7.7068,-7.7107,-7.7108,-7.6928,-7.6903,-7.688,-7.6851,-7.7113,-7.7114,-7.7294,-7.7295,-7.7297]}]]